Weather History for Nassau, Bahamas

Change the Weather History Date:

Tuesday, September 17, 2013

  Actual Average Record
Temperature  
Mean Temperature 82 °F -  
Max Temperature 88 °F 86 °F 93 °F (2003)
Min Temperature 77 °F 73 °F 75 °F (1997)
Cooling Degree Days 18    
Growing Degree Days 32 (Base 50)    
Moisture  
Dew Point 74 °F    
Average Humidity 84    
Maximum Humidity 100    
Minimum Humidity 18    
Precipitation  
Precipitation 0.35 in 0.23 in - ()
Sea Level Pressure  
Sea Level Pressure 29.97 in    
Wind  
Wind Speed 4 mph ()    
Max Wind Speed 12 mph    
Max Gust Speed -    
Visibility 6.4 miles    
Events Rain , Thunderstorm    
Averages and records for this station are not official NWS values.
T = Trace of Precipitation, MM = Missing Value Source: Averaged Metar Reports

Daily Weather History Graph

Daily Weather History Graph

Search for Another Location

Airport:

Trip Planner

Search our weather history database for the weather conditions in past years. The results will help you decide how hot, cold, wet, or windy it might be!

Date:

Astronomy

Sep. 17, 2013 Rise Set
Actual Time 6:56 AM EDT 7:11 PM EDT
Civil Twilight 6:33 AM EDT 7:34 PM EDT
Nautical Twilight 6:07 AM EDT 8:00 PM EDT
Astronomical Twilight 5:40 AM EDT 8:27 PM EDT
Moon 5:52 PM EDT (9/17) 4:58 AM EDT (9/17)
Length of Visible Light 13h 00m
Length of Day
12h 14m
Waxing Gibbous, 96% of the Moon is Illuminated
Sep 17
Waxing Gibbous
Sep 19
Full
Sep 26
Last Quarter
Oct 4
New
Oct 11
First Quarter

Hourly Weather History & Observations

Time (EDT) Temp. Heat Index Dew Point Humidity Pressure Visibility Wind Dir Wind Speed Gust Speed Precip Events Conditions
12:00 AM 77.0 °F - 77.0 °F 100% 29.99 in 4.3 mi ENE 3.5 mph - N/A Rain , Thunderstorm Thunderstorms and Rain
1:00 AM 77.0 °F - 77.0 °F 100% 29.98 in 6.2 mi Calm Calm - N/A Thunderstorm Thunderstorm
3:00 AM 77.0 °F - 77.0 °F 100% 29.97 in 6.2 mi West 8.1 mph - N/A Rain , Thunderstorm Thunderstorms and Rain
4:00 AM 77.0 °F - 77.0 °F 100% 29.96 in 6.2 mi Variable 3.5 mph - N/A Rain , Thunderstorm Thunderstorms and Rain
5:00 AM 77.0 °F - 75.2 °F 94% 29.95 in 6.2 mi NNE 10.4 mph - N/A Rain , Thunderstorm Thunderstorms and Rain
6:00 AM 77.0 °F - 75.2 °F 94% 29.95 in 6.2 mi NE 4.6 mph - N/A Thunderstorm Thunderstorm
7:00 AM 78.8 °F - 73.4 °F 83% 29.96 in 6.2 mi East 2.3 mph - N/A   Overcast
8:00 AM 79 °F - 77 °F 92% 29.96 in 7 mi ESE 3.5 mph - -   Overcast
9:00 AM 80.6 °F 88.1 °F 78.8 °F 94% 29.98 in 6.2 mi SE 3.5 mph - N/A Rain Light Rain Showers
11:00 AM 84 °F - 79 °F 82% 30.01 in 7 mi SE 3.5 mph - - Rain Light Rain Showers
11:00 AM 84.2 °F 96.1 °F 78.8 °F 84% 30.01 in 6.2 mi SE 3.5 mph - N/A   Overcast
12:00 PM 82.4 °F 90.9 °F 77.0 °F 84% 30.02 in 6.2 mi SE 3.5 mph - N/A   Mostly Cloudy
1:00 PM 84.2 °F - 35.6 °F 18% 30.00 in 6.2 mi Variable 1.2 mph - N/A   Mostly Cloudy
2:00 PM 88 °F - 78 °F 64% 29.98 in 7 mi ESE 3.5 mph - -   Partly Cloudy
2:00 PM 87.8 °F 99.7 °F 77.0 °F 70% 29.98 in 6.2 mi ESE 3.5 mph - N/A   Mostly Cloudy
3:00 PM - - - N/A% 29.96 in 5.6 mi NNE 11.5 mph - N/A Rain , Thunderstorm Light Thunderstorms and Rain
4:00 PM 78.8 °F - - N/A% 29.95 in 6.2 mi NNE 4.6 mph - N/A Rain Light Rain
5:00 PM 81 °F - 76 °F 79% 29.94 in 8 mi ENE 4.6 mph - -   Partly Cloudy
5:00 PM 80.6 °F 86.2 °F 75.2 °F 84% 29.93 in 6.2 mi ENE 4.6 mph - N/A   Mostly Cloudy
6:00 PM 78.8 °F - 73.4 °F 83% 29.95 in 6.2 mi ENE 9.2 mph - N/A Rain Light Rain Showers
7:00 PM 80.6 °F 86.2 °F 75.2 °F 84% 29.96 in 6.2 mi ENE 6.9 mph - N/A   Mostly Cloudy
8:00 PM 80 °F - 76 °F 82% 29.95 in 8 mi ENE 4.6 mph - -   Partly Cloudy
8:00 PM 78.8 °F - 75.2 °F 89% 29.96 in 6.2 mi ENE 4.6 mph - N/A   Mostly Cloudy
9:00 PM 78.8 °F - 73.4 °F 83% 29.97 in 6.2 mi ESE 4.6 mph - N/A   Mostly Cloudy
10:00 PM 78.8 °F - 73.4 °F 83% 29.98 in 6.2 mi Variable 2.3 mph - N/A   Mostly Cloudy
11:00 PM 81 °F - 76 °F 79% 29.98 in 8 mi East 6.9 mph - -  
11:00 PM 80.6 °F 86.2 °F 75.2 °F 84% 29.98 in 6.2 mi East 6.9 mph - N/A   Mostly Cloudy